User: anonymous   Login
Location: Hepcat Sky Observatory
(29.9800°N, 95.6500°W)
Time: 23:23:55
(UTC-05:00)
Language:

ALOS - Orbit

View from above orbital plane
View from above orbital plane
View from above satellite
View from above satellite

Ground track
Ground track

The orbit data is extracted from the following two-line orbital elements,

1 28931U 06002A   14298.84135381  .00001810  00000-0  37492-3 0   863
2 28931 097.9675 352.2492 0002267 113.9772 008.9971 14.61388338466401
Epoch (UTC): 25 October 2014 20:11:32
Eccentricity: 0.0002267
inclination: 97.9675°
perigee height: 687 km
apogee height: 690 km
right ascension of ascending node: 352.2492°
argument of perigee: 113.9772°
revolutions per day: 14.61388338
mean anomaly at epoch: 8.9971°
orbit number at epoch: 46640

The dashed part of the orbit path shows where the satellite is in the earth's shadow,  

DLR